Weather History for Los Alamos, NM

Change the Weather History Date:

Wednesday, June 19, 2013

  Actual Average Record
Temperature  
Mean Temperature 75 °F -  
Max Temperature 87 °F 79 °F 92 °F (1989)
Min Temperature 63 °F 52 °F 40 °F (1975)
Cooling Degree Days 10    
Growing Degree Days 25 (Base 50)    
Moisture  
Dew Point 25 °F    
Average Humidity 23    
Maximum Humidity 55    
Minimum Humidity 5    
Precipitation  
Precipitation 0.00 in - - ()
Sea Level Pressure  
Sea Level Pressure 30.11 in    
Wind  
Wind Speed 10 mph (SSW)    
Max Wind Speed 24 mph    
Max Gust Speed 33 mph    
Visibility 10 miles    
Events      
Averages and records for this station are not official NWS values.
T = Trace of Precipitation, MM = Missing Value Source: NWS Daily Summary

Daily Weather History Graph

Daily Weather History Graph

Search for Another Location

Airport:

Trip Planner

Search our weather history database for the weather conditions in past years. The results will help you decide how hot, cold, wet, or windy it might be!

Date:

Astronomy

Jun. 19, 2013 Rise Set
Actual Time 5:48 AM MDT 8:24 PM MDT
Civil Twilight 5:18 AM MDT 8:54 PM MDT
Nautical Twilight 4:40 AM MDT 9:32 PM MDT
Astronomical Twilight 3:59 AM MDT 10:13 PM MDT
Moon 4:25 PM MDT (6/19) 2:28 AM MDT (6/19)
Length of Visible Light 15h 36m
Length of Day
14h 35m
Waxing Gibbous, 81% of the Moon is Illuminated
Jun 19
Waxing Gibbous
Jun 23
Full
Jun 29
Last Quarter
Jul 8
New
Jul 15
First Quarter

Hourly Weather History & Observations

Time (MDT) Temp. Dew Point Humidity Pressure Visibility Wind Dir Wind Speed Gust Speed Precip Events Conditions
12:15 AM 70.5 °F 37.0 °F 29% 30.13 in 10.0 mi SSE 4.6 mph - N/A   Clear
12:35 AM 69.4 °F 38.7 °F 32% 30.13 in 10.0 mi South 5.8 mph - N/A   Clear
12:55 AM 68.4 °F 41.7 °F 38% 30.13 in 10.0 mi SSW 4.6 mph - N/A   Clear
1:15 AM 68.0 °F 43.7 °F 41% 30.12 in 10.0 mi SW 4.6 mph - N/A   Clear
1:35 AM 67.5 °F 43.9 °F 43% 30.12 in 10.0 mi SW 8.1 mph - N/A   Clear
1:55 AM 67.6 °F 44.1 °F 43% 30.12 in 10.0 mi SSW 6.9 mph - N/A   Clear
2:15 AM 67.8 °F 45.0 °F 44% 30.12 in 10.0 mi South 8.1 mph - N/A   Clear
2:35 AM 67.8 °F 45.5 °F 45% 30.12 in 10.0 mi South 9.2 mph - N/A   Clear
2:55 AM 67.1 °F 45.5 °F 46% 30.12 in 10.0 mi South 10.4 mph - N/A   Clear
3:15 AM 66.7 °F 45.5 °F 46% 30.13 in 10.0 mi South 10.4 mph - N/A   Clear
3:35 AM 66.2 °F 45.7 °F 48% 30.13 in 10.0 mi South 11.5 mph - N/A   Clear
3:55 AM 65.7 °F 46.6 °F 50% 30.13 in 10.0 mi South 10.4 mph - N/A   Clear
4:15 AM 65.5 °F 46.9 °F 51% 30.13 in 10.0 mi South 12.7 mph - N/A   Clear
4:35 AM 64.8 °F 46.8 °F 52% 30.13 in 10.0 mi South 8.1 mph - N/A   Clear
4:55 AM 64.2 °F 46.0 °F 52% 30.13 in 10.0 mi SSW 6.9 mph - N/A   Clear
5:15 AM 63.5 °F 46.6 °F 54% 30.14 in 10.0 mi SSW 6.9 mph - N/A   Clear
5:35 AM 63.5 °F 46.9 °F 55% 30.15 in 10.0 mi SSW 10.4 mph - N/A   Clear
5:55 AM 63.1 °F 46.4 °F 54% 30.15 in 10.0 mi SSW 9.2 mph - N/A   Clear
6:15 AM 63.5 °F 46.0 °F 53% 30.16 in 10.0 mi SSW 9.2 mph - N/A   Clear
6:35 AM 64.2 °F 45.1 °F 50% 30.16 in 10.0 mi South 9.2 mph - N/A   Clear
6:55 AM 64.8 °F 44.1 °F 47% 30.16 in 10.0 mi SSW 8.1 mph - N/A   Clear
7:15 AM 65.5 °F 44.8 °F 47% 30.16 in 10.0 mi SSW 8.1 mph - N/A   Clear
7:35 AM 66.7 °F 46.6 °F 48% 30.17 in 10.0 mi SSW 8.1 mph - N/A   Clear
7:55 AM 68.4 °F 46.4 °F 45% 30.17 in 10.0 mi South 8.1 mph - N/A   Clear
8:15 AM 69.6 °F 44.8 °F 41% 30.17 in 10.0 mi South 6.9 mph - N/A   Clear
8:35 AM 69.3 °F 45.1 °F 42% 30.17 in 10.0 mi South 10.4 mph - N/A   Clear
8:55 AM 70.9 °F 39.9 °F 32% 30.18 in 10.0 mi South 9.2 mph - N/A   Clear
9:15 AM 72.0 °F 34.0 °F 25% 30.18 in 10.0 mi South 11.5 mph - N/A   Clear
9:35 AM 72.7 °F 35.1 °F 25% 30.17 in 10.0 mi SSE 12.7 mph - N/A   Clear
9:55 AM 73.8 °F 35.6 °F 25% 30.17 in 10.0 mi SSE 16.1 mph - N/A   Clear
10:15 AM 75.2 °F 28.0 °F 18% 30.16 in 10.0 mi SSE 19.6 mph 23.0 mph N/A   Clear
10:35 AM 76.1 °F 31.6 °F 20% 30.16 in 10.0 mi SSE 12.7 mph 23.0 mph N/A   Clear
10:55 AM 76.5 °F 30.4 °F 18% 30.16 in 10.0 mi South 15.0 mph 27.6 mph N/A   Clear
11:15 AM 76.3 °F 32.2 °F 20% 30.16 in 10.0 mi South 12.7 mph 23.0 mph N/A   Clear
11:35 AM 77.2 °F 29.5 °F 17% 30.15 in 10.0 mi South 3.5 mph 23.0 mph N/A   Clear
11:55 AM 78.8 °F 25.7 °F 14% 30.15 in 10.0 mi South 18.4 mph 23.0 mph N/A   Clear
12:15 PM 79.5 °F 19.2 °F 11% 30.15 in 10.0 mi South 11.5 mph 21.9 mph N/A   Clear
12:35 PM 80.4 °F 15.6 °F 9% 30.14 in 10.0 mi South 9.2 mph 21.9 mph N/A   Clear
12:55 PM 81.1 °F 17.2 °F 9% 30.13 in 10.0 mi SSE 10.4 mph 33.4 mph N/A   Clear
1:15 PM 82.0 °F 15.4 °F 8% 30.13 in 10.0 mi South 18.4 mph 31.1 mph N/A   Clear
1:35 PM 82.4 °F 13.6 °F 8% 30.12 in 10.0 mi SSW 12.7 mph 24.2 mph N/A   Clear
1:55 PM 82.9 °F 11.5 °F 7% 30.11 in 10.0 mi South 16.1 mph 26.5 mph N/A   Clear
2:15 PM 83.5 °F 12.4 °F 7% 30.11 in 10.0 mi South 16.1 mph 27.6 mph N/A   Clear
2:35 PM 83.8 °F 12.4 °F 7% 30.11 in 10.0 mi SSW 23.0 mph 28.8 mph N/A   Clear
2:55 PM 83.8 °F 12.7 °F 7% 30.10 in 10.0 mi SSW 6.9 mph 28.8 mph N/A   Clear
3:15 PM 84.9 °F 12.2 °F 7% 30.09 in 10.0 mi South 18.4 mph 25.3 mph N/A   Clear
3:35 PM 84.7 °F 12.2 °F 7% 30.08 in 10.0 mi South 18.4 mph 24.2 mph N/A   Clear
3:55 PM 85.6 °F 10.4 °F 6% 30.07 in 10.0 mi SSW 16.1 mph 27.6 mph N/A   Clear
4:15 PM 85.3 °F 9.0 °F 6% 30.06 in 10.0 mi South 13.8 mph 29.9 mph N/A   Clear
4:35 PM 87.1 °F 8.4 °F 5% 30.05 in 10.0 mi SSW 15.0 mph 31.1 mph N/A   Clear
4:55 PM 86.9 °F 10.2 °F 6% 30.04 in 10.0 mi South 17.3 mph 25.3 mph N/A   Clear
5:15 PM 86.4 °F 8.2 °F 5% 30.04 in 10.0 mi South 6.9 mph 31.1 mph N/A   Clear
5:35 PM 86.7 °F 8.1 °F 5% 30.03 in 10.0 mi South 13.8 mph 25.3 mph N/A   Clear
5:55 PM 86.5 °F 8.2 °F 5% 30.02 in 10.0 mi South 24.2 mph 29.9 mph N/A   Clear
6:15 PM 86.5 °F 7.3 °F 5% 30.02 in 10.0 mi South 16.1 mph 24.2 mph N/A   Clear
6:35 PM 86.7 °F 5.9 °F 5% 30.02 in 10.0 mi SW 15.0 mph 23.0 mph N/A   Clear
6:55 PM 86.0 °F 5.7 °F 5% 30.02 in 10.0 mi WSW 12.7 mph 20.7 mph N/A   Clear
7:15 PM 85.6 °F 7.0 °F 5% 30.03 in 10.0 mi SSW 12.7 mph 24.2 mph N/A   Clear
7:35 PM 84.6 °F 6.4 °F 5% 30.03 in 10.0 mi SW 15.0 mph 20.7 mph N/A   Clear
7:55 PM 83.5 °F 6.3 °F 5% 30.04 in 10.0 mi WSW 10.4 mph - N/A   Clear
8:15 PM 82.0 °F 5.5 °F 5% 30.04 in 10.0 mi WSW 11.5 mph 17.3 mph N/A   Clear
8:35 PM 81.0 °F 5.2 °F 5% 30.05 in 10.0 mi WSW 11.5 mph 17.3 mph N/A   Clear
8:55 PM 80.2 °F 5.2 °F 6% 30.05 in 10.0 mi WSW 12.7 mph - N/A   Clear
9:15 PM 78.3 °F 6.6 °F 6% 30.06 in 10.0 mi West 10.4 mph - N/A   Clear
9:35 PM 78.1 °F 5.9 °F 6% 30.07 in 10.0 mi West 10.4 mph - N/A   Clear
9:55 PM 78.1 °F 5.5 °F 6% 30.07 in 10.0 mi West 16.1 mph 20.7 mph N/A   Clear
10:15 PM 78.1 °F 5.0 °F 6% 30.07 in 10.0 mi West 12.7 mph 19.6 mph N/A   Clear
10:35 PM 77.2 °F 5.2 °F 6% 30.08 in 10.0 mi West 11.5 mph 16.1 mph N/A   Clear
10:55 PM 77.0 °F 5.0 °F 6% 30.08 in 10.0 mi West 13.8 mph 19.6 mph N/A   Clear
11:15 PM 75.7 °F 4.8 °F 6% 30.09 in 10.0 mi South 6.9 mph - N/A   Clear
11:35 PM 75.6 °F 4.5 °F 6% 30.10 in 10.0 mi South 10.4 mph - N/A   Clear
11:55 PM 74.8 °F 3.9 °F 6% 30.11 in 10.0 mi South 9.2 mph - N/A   Clear